Regional Weather Roundup
Issued by NWS Grand Forks, ND

Home | Current Version | Previous Version | Graphics & Text | Print | Product List | Glossary On
Versions: 1 2 3 4 5 6 7 8 9 10 11 12 13 14 15 16 17 18 19 20 21 22 23 24 25 26 27 28 29 30 31 32 33 34 35 36 37 38 39 40 41 42 43 44 45 46 47 48 49 50
000
ASUS43 KFGF 251010
RWRFGF
PRAIRIE TO PINES  WEATHER ROUNDUP
NATIONAL WEATHER SERVICE EASTERN NORTH DAKOTA/GRAND FORKS ND
500 AM CDT WED APR 25 2018

 **SATELLITE DATA USED TO AUGMENT SKY COVER AT AUTOMATED STATIONS**
 *****  WEATHER ACROSS EASTERN NORTH DAKOTA  *****

CITY           SKY/WX    TMP DP  RH WIND       PRES   REMARKS
GRAND FORKS    FAIR      31  29  92 S9        30.23F WCI  23
GRAND FRKS AFB FAIR      34  27  75 S10       30.22F
GRAND FRKS NWS   N/A     35  29  78 SW9       30.21F
DEVILS LAKE    FAIR      35  27  72 SW12      30.20F
FARGO          FAIR      31  28  89 S6        30.27F
WAHPETON ARPT  FAIR      30  27  86 W5        30.30S
$$

 ***** WEATHER ACROSS CENTRAL AND WESTERN NORTH DAKOTA  *****

CITY           SKY/WX    TMP DP  RH WIND       PRES   REMARKS
BISMARCK       FAIR      32  27  81 CALM      30.26F
MINOT          FAIR      44  30  57 SW12      30.15F
JAMESTOWN      FAIR      33  27  78 SW8       30.25F
MINOT AFB      FAIR      43  30  61 SW14      30.12F
GARRISON         N/A     33  28  81 SW3       30.20F
WILLISTON      FAIR      41  32  70 SW10      30.15F
DICKINSON      FAIR      36  27  69 SW13      30.21F
HETTINGER      FAIR      29  23  78 SW7       30.27F WCI  22
$$

 *****  OTHER AIRPORT OBSERVATIONS IN OUR AREA  *****

CITY           SKY/WX    TMP DP  RH WIND       PRES   REMARKS
WALHALLA       NOT AVBL
GRAFTON AIRPOR FAIR      28  27  93 S8        30.23F WCI  20
VALLEY CITY AR FAIR      30  30 100 SW6       30.28F WCI  24
CANDO          FAIR      34  28  80 S8        30.19F
CAVALIER APRT    N/A     36  28  75 S12       30.17F
GWINNER          N/A     32  30  93 W7        30.29S
SHEYENNE NWR     N/A     26  26 100 SW3       29.95S
ROLLA          FAIR      37  25  60 SW18      30.13F
 ***** THE ABOVE OBSERVATIONS ARE NON NWS ARE NOT QUALITY
       CONTROLLED AND MAY MIS-REPORT RAIN FOR SNOW...
$$

  *****  WEATHER ACROSS NORTHERN MINNESOTA  *****

CITY           SKY/WX    TMP DP  RH WIND       PRES   REMARKS
FLAG ISLAND    FAIR      30  21  69 S5        30.20F
WARROAD        FAIR      32  25  74 S5        30.22F
ROSEAU         FAIR      34  27  75 S10       30.22F
HALLOCK        FAIR      30  27  86 S9        30.20F WCI  22
THF RVR FALLS  FAIR      31  25  78 S7        30.25F WCI  24
BAUDETTE       FAIR      30  22  72 SW5       30.22F
WASKISH        FAIR      25  21  86 CALM      30.24F
CROOKSTON      FAIR      30  27  86 S7        30.26F WCI  23
STEPHEN NDAWN    N/A     37  28  70 S10         N/A
GREENBUSH NDAW   N/A     34  27  75 S8          N/A
$$
  *****  WEATHER ACROSS CENTRAL AND WEST MINNESOTA  *****

CITY           SKY/WX    TMP DP  RH WIND       PRES   REMARKS
FOSSTON        FAIR      25  21  86 S5        30.26F WCI  19
BEMIDJI        FAIR      22  18  86 CALM      30.25F
PARK RAPIDS    FAIR      25  21  85 CALM      30.26F
ELBOW LAKE     FAIR      30  26  86 SE3       30.29F
WADENA         FAIR      27 N/A N/A CALM      30.27F
DETROIT LAKES  FAIR      30  28  93 CALM      30.27F
MOORHEAD       FAIR      30  27  86 S5        30.29S
FERGUS FALLS   FAIR      34  25  69 SE8       30.27S
MORRIS MN      FAIR      30  28  93 CALM      30.29S
STAPLES        FAIR      25  21  86 CALM      30.28S
$$
  *****  WEATHER ELSEWHERE ACROSS MINNESOTA  *****

CITY           SKY/WX    TMP DP  RH WIND       PRES   REMARKS
DULUTH         FAIR      29  21  72 N6        30.24F WCI  23
INTRNTL FALLS  FAIR      21  19  92 CALM      30.23F
ELY            FAIR      21  19  93 CALM      30.24F
CLOQUET        FAIR      27  19  74 NW5       30.26S WCI  21
WHEATON        FAIR      30  27  86 SW5       30.33S
BRAINERD       FAIR      26  21  81 CALM      30.28S
HIBBING        FAIR      21  18  88 CALM      30.26S
ALEXANDRIA     FAIR      33  22  63 E3        30.28F
SAINT CLOUD    FAIR      29  25  85 N5        30.28S WCI  24
MINNEAPOLIS    FAIR      37  26  64 N7        30.25F
$$

  *****  WEATHER ACROSS SOUTH DAKOTA  *****

CITY           SKY/WX    TMP DP  RH WIND       PRES   REMARKS
SIOUX FALLS    FAIR      31  26  82 N3        30.28S
BROOKINGS      FAIR      33  28  81 N5        30.29S
WATERTOWN      FAIR      28  27  96 CALM      30.29R
HURON          FAIR      28  26  92 W5        30.32S WCI  23
SISSETON         N/A     30  26  85 CALM      30.29F
ABERDEEN       FAIR      24  23  96 CALM      30.32S
MITCHELL       FAIR      33  29  85 W6        30.33S
PIERRE         FAIR      31  30  96 SW7       30.32F WCI  24
MOBRIDGE       FAIR      32  28  85 CALM      30.28S
RAPID CITY     FAIR      30  21  69 SW8       30.32F WCI  22
$$

  *****  SOME WEATHER IN NEARBY STATES *****

CITY           SKY/WX    TMP DP  RH WIND       PRES   REMARKS
GLASGOW MT     FAIR      37  31  78 SE8       30.07F
GREAT FALLS MT FAIR      45  22  40 S12       30.10F
CHEYENNE WY    FAIR      25  23  92 W6        30.34F WCI  18
SCOTTSBLUFF NE FAIR      28  26  92 CALM      30.37F
OMAHA NE       CLOUDY    46  43  89 NW10      30.22R
DES MOINES IA  CLOUDY    50  38  63 N10       30.16S
DAVENPORT IA   CLOUDY    50  33  52 E16       30.11R
CHICAGO IL     CLOUDY    44  30  57 N18       30.05S
EAU CLAIRE WI  FAIR      35  26  69 N8        30.22R
LA CROSSE WI   FAIR      40  34  79 NW7       30.19R
$$

  *****  SOME NATIONAL WEATHER *****

CITY           SKY/WX    TMP DP  RH WIND       PRES   REMARKS
LA GUARDIA NY  LGT RAIN  54  52  93 E14       29.97F FOG
RALEIGH NC     CLOUDY    60  60 100 S6        29.73S
ATLANTA GA     FAIR      55  54  96 W8        29.88S
NEW ORLEANS LA FAIR      59  58  96 W3        30.04R
OKLAHOMA CITY  CLOUDY    49  43  80 N23G31    30.18S
ALBUQUERQUE NM FAIR      49  34  56 E17G25    30.21R
SALT LAKE CITY FAIR      50  27  40 S10       30.24F
LOS ANGELES CA CLOUDY    55  51  86 CALM      30.06S
BOISE ID       FAIR      49  32  52 S5        30.17F
SEATTLE WA     FAIR      54  37  52 N10       30.07S
$$

*** WEATHER ACROSS MANITOBA...SASKATCHEWAN AND ONTARIO ***
                ***ONTARIO***

CITY           SKY/WX    TMP DP  RH WIND       PRES   REMARKS
GERALDTON      PTCLDY    21  19  93 NW2       30.21S
THUNDER BAY    CLEAR     27  21  80 SW3       30.25S
SIOUX LOOKOUT  PTCLDY    25  21  86 S6        30.18F WCI  18
TORONTO        LGT RAIN  48  46  93 E8        29.91F FOG
BIG TROUT LK   CLEAR     30  23  74 S10       29.96F WCI  21
PICKLE LAKE    NOT AVBL
DRYDEN         CLEAR     28  21  74 S9        30.18F WCI  20
KENORA         PTCLDY    30  21  69 S10       30.17F WCI  21
$$
                *** MANITOBA***

CITY           SKY/WX    TMP DP  RH WIND       PRES   REMARKS
BRANDON        CLEAR     39  30  70 SW10      30.06F
DAUPHIN        MOCLDY    50  28  43 SW17G25   29.94F
ISLAND LAKE    PTCLDY    41  25  52 SW16G29   29.80F
PILOT MOUND      N/A     34  27  75 S10         N/A
THE PAS        CLOUDY    46  32  57 W12       29.75S
THOMPSON       MOCLDY    37  30  75 SW3       29.66F
WINNIPEG       CLEAR     39  25  56 S18G24    30.10F
LYNN LAKE      PTCLDY    39  30  70 W8G17     29.68R
CHURCHILL      CLOUDY    34  32  93 W9        29.46F
GILLAM         MOCLDY    39  28  65 SW12      29.63F
$$
                ***SASKATCHEWAN***

CITY           SKY/WX    TMP DP  RH WIND       PRES   REMARKS
ESTEVAN        MOCLDY    39  32  75 SW14      30.08F
KINDERSLEY     CLOUDY    41  28  60 W3        29.87F
LLOYDMINSTER   CLOUDY    46  30  53 NW13      29.94R
PRINCE ALBERT  CLOUDY    39  32  75 W3        29.85S
REGINA         CLOUDY    41  30  65 S12       29.95F
YORKTON        CLEAR     45  28  53 SW14G21   29.92F
N. BATTLEFORD  MOCLDY    41  30  65 NW2       29.90S
LA RONGE       CLOUDY    48  27  43 NW7       29.85R
SASKATOON      MOCLDY    39  30  70 SW8       29.86F
SWIFT CURRENT  MOCLDY    46  25  42 SW20G26   29.91F
$$
NOTE: THESE ARE AUTOMATED STATIONS WITH LIMITED QUALITY CONTROL
      "FAIR" INDICATES FEW OR NO CLOUDS BELOW 12,000 FEET WITH NO
      SIGNIFICANT WEATHER AND/OR OBSTRUCTIONS TO VISIBILITY.
      SKY/WX - SKY CONDITION AND SIGNIFICANT WEATHER.
      TMP - AIR TEMPERATURE.    DP   - DEWPOINT TEMPERATURE.
      RH  - RELATIVE HUMIDITY.  PRES - PRESSURE.
      HX  - HEAT INDEX.         WCI  - WIND CHILL INDEX.
$



USA.gov is the U.S. government's official web portal to all federal, state and local government web resources and services.